Wind_Speed
10 11 14 16 14 11 9 4 2 2 3 1 4 4 3 3 3 4 5 3 3 4 4 4 5 6 3 2 6 11 8 6 3 1 2 7 15 14 17 18 17 17 13 10 11 14 15 15 16 15 14 12 12 12 13 13 14 15 14 13 14 13 13 14 14 14 15 15 15 15 15 16 16 16 16 16 16 16 17 17 16 16 16 17 18 19 18 18 18 18 18 18 18 18 19 19 20
9 10 13 15 12 6 4 1 1 3 3 2 5 4 4 2 1 5 5 4 6 5 3 5 5 5 2 1 4 10 9 9 8 5 6 13 15 14 18 17 16 17 13 12 12 12 15 16 15 14 13 12 12 13 13 13 13 13 13 13 13 12 12 13 13 14 14 14 15 15 15 15 15 14 15 14 15 16 16 16 15 15 16 17 17 17 17 17 17 16 16 16 16 17 17 18 18
9 9 11 12 8 3 2 2 2 4 1 4 4 2 4 3 4 7 8 8 8 5 4 5 4 3 2 1 4 7 6 8 10 8 8 14 13 14 18 16 16 17 15 15 12 11 14 15 14 13 13 13 13 14 14 12 11 12 13 13 13 13 12 12 13 13 13 14 14 14 15 15 14 14 15 15 14 14 15 16 15 15 16 17 16 16 16 16 15 15 15 15 16 16 16 17 17
8 7 8 9 4 3 2 1 3 4 3 3 4 2 3 5 8 9 8 8 7 5 4 2 2 2 4 4 5 7 7 6 10 10 7 12 13 16 19 16 16 16 17 16 12 11 13 14 14 12 12 13 14 14 13 11 11 11 14 14 12 13 12 12 13 13 13 13 13 13 14 14 14 14 14 14 14 13 13 14 15 16 15 16 15 15 15 15 14 14 15 15 15 16 16 16 16
8 8 8 7 3 1 2 2 4 2 4 2 3 3 3 7 10 8 7 6 5 4 2 2 1 1 2 4 4 3 4 6 10 11 10 14 18 18 18 17 17 16 17 15 12 11 12 14 13 12 11 12 14 15 12 10 11 13 15 14 12 12 12 12 12 13 13 12 13 13 13 13 14 13 13 14 13 13 14 14 15 16 14 14 14 15 15 15 14 15 15 15 15 15 15 15 15
9 10 8 7 2 1 0 3 3 2 3 4 4 3 4 8 9 8 7 6 4 4 2 0 1 2 4 4 6 4 3 6 9 12 14 19 20 19 18 17 16 16 15 14 11 10 13 13 12 11 11 12 13 14 12 9 11 12 13 13 12 12 12 12 12 12 12 13 13 13 14 13 13 13 13 14 14 13 14 15 15 15 15 14 14 15 15 15 14 15 15 15 15 14 15 15 15
8 7 4 4 2 0 1 5 2 4 3 5 4 3 6 8 8 8 7 5 3 3 2 2 1 2 4 4 6 7 7 6 9 15 21 21 21 19 17 16 16 17 15 14 11 11 13 12 11 11 11 12 12 13 11 9 10 11 11 11 12 12 11 11 12 11 11 12 12 12 13 13 13 13 12 13 13 12 13 14 15 14 15 14 13 14 15 14 14 14 14 14 14 14 15 15 16
6 2 1 1 2 2 3 5 1 5 2 3 5 4 6 8 7 7 5 4 3 3 2 1 1 1 3 4 4 5 8 13 15 21 24 22 22 19 16 16 16 16 15 14 12 12 13 13 12 11 11 11 11 12 11 9 9 10 11 10 12 11 10 10 11 11 11 11 10 12 13 12 12 12 11 12 12 12 12 13 13 13 13 13 13 14 14 13 13 13 14 14 14 15 15 15 16
6 2 1 1 3 2 4 4 2 5 3 3 5 4 4 6 6 6 5 5 4 4 5 3 2 0 2 6 7 5 7 16 19 21 23 21 21 18 15 16 16 16 15 14 12 12 14 14 13 11 12 11 11 13 11 10 9 10 10 11 12 11 10 10 11 12 11 11 10 12 13 12 11 11 11 11 12 12 12 12 12 13 12 13 13 13 13 13 12 12 13 13 14 15 15 15 15
3 3 1 1 3 3 5 2 4 4 5 4 5 4 3 4 4 5 5 6 5 4 5 3 2 1 1 8 6 4 8 15 18 19 20 19 18 15 15 15 15 16 14 13 12 14 16 15 13 12 12 12 13 13 13 12 11 11 10 12 13 12 12 11 11 12 12 11 11 11 12 11 11 11 10 10 11 11 11 11 11 11 11 11 11 12 12 12 11 11 12 13 14 14 14 15 14
1 2 0 1 3 4 4 1 4 3 6 4 5 5 4 3 2 4 5 6 5 4 5 2 2 3 1 6 3 5 11 15 18 18 19 18 15 13 15 15 15 15 13 13 13 15 18 16 13 13 13 13 13 13 13 12 12 12 11 11 12 12 11 11 11 11 11 11 11 10 10 11 11 10 10 11 11 10 10 10 10 10 10 10 10 11 11 11 10 11 11 12 12 13 13 14 14
1 2 1 2 4 3 2 1 4 5 6 5 5 4 3 4 2 3 5 6 5 5 6 4 1 2 3 4 2 8 13 15 18 18 18 16 14 13 14 15 14 14 14 14 12 14 17 16 14 14 14 14 13 13 12 11 11 11 12 11 10 10 9 10 10 10 10 10 11 11 11 11 11 11 12 12 11 9 8 8 9 10 10 9 9 9 10 10 10 10 10 11 11 12 12 13 13
1 3 1 2 4 3 2 2 3 5 3 3 5 3 3 4 4 3 3 5 5 4 5 4 1 1 2 4 4 8 11 16 20 19 18 15 13 12 13 14 13 14 14 13 12 14 16 15 15 16 15 14 13 12 11 11 11 12 13 11 9 8 9 11 10 9 11 11 12 12 11 11 11 12 13 14 13 10 9 8 8 9 9 9 9 9 9 9 9 10 10 10 10 11 11 11 12
1 3 1 2 4 4 2 3 2 3 1 3 4 3 3 3 2 1 2 4 4 2 2 4 1 2 3 4 5 4 10 20 21 20 18 13 12 12 14 13 12 14 14 13 13 14 15 14 13 15 16 15 14 12 11 12 12 12 11 10 9 8 10 12 11 10 11 12 12 11 10 10 10 12 13 14 13 12 11 9 8 9 9 9 9 9 9 9 9 9 9 9 9 9 10 10 11
1 2 1 2 4 4 1 1 1 1 2 3 1 3 4 2 2 2 3 2 4 2 3 5 3 2 2 1 5 6 14 24 23 21 19 14 12 10 13 14 11 12 13 12 12 13 15 13 11 14 16 15 15 13 11 13 13 12 10 9 9 9 10 12 11 10 11 10 9 9 9 9 10 11 12 12 12 12 12 10 8 9 9 8 8 8 8 8 8 8 8 8 8 8 8 9 9
1 1 1 1 3 4 1 2 1 1 2 3 2 1 5 3 3 2 3 2 3 1 1 4 2 2 4 4 9 16 21 26 23 21 19 16 14 10 11 12 11 11 12 12 13 13 14 14 12 12 15 15 15 14 12 13 13 12 11 9 9 10 9 10 11 10 10 8 7 8 8 10 10 11 11 11 12 13 13 11 9 8 9 8 7 7 7 7 7 7 7 7 7 7 8 9 9
1 1 0 2 3 3 2 3 2 3 3 3 1 2 4 5 1 1 0 1 3 3 2 4 4 5 6 8 17 24 24 24 23 21 19 18 16 13 11 10 11 12 12 13 14 13 13 14 12 12 15 14 14 14 14 14 14 13 12 10 9 10 10 9 11 10 9 8 7 8 9 10 10 9 10 11 12 13 12 11 8 7 8 7 7 7 7 7 6 6 6 6 6 6 8 9 9
0 1 2 3 3 4 2 1 2 5 6 3 4 2 1 5 3 2 2 1 2 4 4 5 7 8 8 13 22 24 24 24 23 21 19 18 16 15 13 12 13 13 13 13 14 15 15 15 14 14 15 14 14 16 15 14 14 13 12 11 9 11 11 10 11 10 10 9 7 9 10 9 9 8 8 11 12 12 11 9 7 5 6 6 6 6 7 6 6 5 5 5 6 8 8 7 8
2 2 2 4 4 2 1 4 4 4 7 5 5 2 2 2 4 3 2 4 5 4 4 6 7 7 7 13 21 22 23 23 22 20 19 18 16 16 15 15 16 16 15 15 15 16 16 16 16 15 15 16 15 16 16 13 14 13 11 11 10 12 12 11 11 11 11 10 9 10 10 7 8 8 7 9 10 10 10 8 7 6 6 5 5 5 5 5 5 5 5 5 7 8 7 6 6
2 2 3 4 4 0 4 4 5 4 5 6 5 3 0 2 2 3 2 4 6 6 5 7 7 8 8 11 18 21 21 22 22 20 19 19 18 17 18 17 17 17 18 17 16 17 17 17 17 16 15 17 16 16 16 13 13 12 10 10 10 12 14 13 11 11 11 10 10 12 11 8 9 10 9 8 8 9 9 8 7 6 6 5 5 5 4 4 4 4 4 4 5 6 5 3 2
3 3 4 3 5 1 5 5 6 5 4 4 6 2 2 2 2 2 3 3 4 6 6 8 10 12 12 10 16 20 20 20 21 20 19 19 18 18 18 18 17 16 17 18 18 18 18 18 18 18 17 18 17 16 15 12 12 13 13 11 9 11 14 15 13 12 12 11 12 12 11 12 11 11 9 8 8 8 8 8 7 6 6 5 4 4 4 3 3 3 3 3 4 4 3 0 2
2 4 5 3 5 2 6 6 5 4 2 2 4 2 2 3 1 2 4 3 2 1 1 3 6 14 16 13 16 18 17 18 19 20 19 20 19 18 18 19 18 16 17 19 19 19 19 19 19 20 19 20 19 18 16 14 13 14 16 13 10 12 13 15 15 13 13 13 13 12 10 13 13 11 10 10 8 7 7 7 5 4 5 4 3 2 3 2 2 2 2 3 3 1 1 1 1
4 4 5 4 4 2 4 4 3 2 0 2 2 0 2 1 3 3 6 5 2 3 5 6 5 14 21 17 17 15 14 16 18 21 21 22 21 20 19 20 20 18 19 19 19 19 21 20 20 20 20 21 20 19 18 16 16 16 16 14 13 13 13 15 17 15 15 15 15 14 11 13 14 11 11 11 10 8 8 6 4 3 5 3 2 3 3 4 2 1 1 1 1 2 1 2 2
6 5 6 7 5 2 4 4 1 0 0 2 2 1 0 4 3 0 3 6 1 4 6 6 6 15 21 15 14 14 15 18 20 23 23 22 23 23 20 20 21 20 19 19 18 19 21 22 21 21 21 22 22 19 18 18 18 18 16 16 15 15 14 15 17 16 15 16 17 16 12 14 16 12 12 12 13 12 9 7 5 6 7 6 4 5 6 6 4 4 3 2 0 0 1 2 1
7 7 6 5 4 3 6 5 4 3 1 2 2 1 4 4 1 2 2 6 3 5 7 6 4 11 14 11 12 12 14 18 19 21 22 22 23 23 20 19 21 21 20 20 20 21 22 23 22 23 23 23 23 21 19 18 19 19 17 18 18 18 17 16 17 17 16 17 17 18 15 15 17 14 13 14 15 14 11 10 10 10 9 8 7 7 8 6 5 5 3 1 1 1 3 3 2
7 9 8 3 4 4 6 5 5 4 2 3 2 4 5 2 3 2 7 9 5 6 7 6 5 7 9 9 11 11 11 15 18 20 22 22 22 23 22 21 21 23 23 21 22 22 22 24 24 24 24 24 24 23 21 19 20 20 19 19 19 20 20 19 19 18 18 19 19 20 19 17 16 15 15 15 16 15 13 14 14 11 9 9 8 7 7 6 6 5 3 3 4 4 4 4 4
3 10 10 6 6 5 6 5 5 4 2 5 4 5 4 2 2 4 4 5 5 8 6 6 6 6 7 7 9 11 11 15 19 20 20 20 21 23 24 23 23 23 24 23 23 22 21 24 25 24 24 24 25 24 23 21 20 21 21 20 19 21 23 22 20 20 20 20 20 20 21 20 17 16 16 15 15 15 14 15 15 12 10 10 9 7 6 6 6 6 5 6 6 6 6 5 4
2 7 7 5 5 5 6 6 5 4 2 5 4 5 2 2 3 5 2 3 5 6 6 7 7 7 7 7 8 9 11 15 20 19 19 21 22 23 25 27 26 24 24 25 25 23 22 23 25 25 25 25 25 25 25 23 21 21 22 21 20 21 23 23 21 21 21 21 21 20 22 22 19 16 16 15 14 15 15 14 14 12 11 11 10 9 8 7 8 7 8 8 7 7 7 7 6
2 2 4 4 5 5 7 7 6 6 3 5 3 4 5 5 6 8 6 5 5 5 6 7 7 7 7 7 7 7 10 15 19 19 22 24 24 25 27 29 28 25 24 24 24 25 24 23 25 26 25 26 26 26 26 25 22 22 22 22 22 21 22 23 24 23 22 21 21 20 22 23 22 20 17 15 15 15 14 13 13 13 13 12 10 10 10 9 9 8 9 8 8 7 7 7 6
1 2 3 4 4 6 8 8 7 7 5 7 5 2 6 7 10 13 10 8 7 6 7 7 7 6 7 7 7 7 9 13 17 20 22 23 24 25 27 27 27 27 24 23 24 26 25 24 25 26 26 27 27 26 26 26 24 23 23 23 23 22 22 23 24 24 23 23 23 22 22 23 24 23 21 19 17 16 15 14 13 14 14 12 10 11 11 9 9 9 9 9 8 8 8 7 6
4 4 3 3 3 5 9 11 10 7 5 8 6 4 6 4 6 10 10 8 9 7 7 7 7 6 6 7 7 7 9 13 16 20 21 22 24 26 26 26 26 27 24 24 25 25 26 25 25 27 27 27 28 28 26 27 26 24 24 24 24 24 23 23 24 24 23 23 24 25 25 24 24 24 24 22 21 20 18 17 16 16 15 13 14 14 12 9 9 9 10 10 9 9 9 9 9
4 5 3 4 4 4 6 11 12 9 4 7 7 3 7 6 6 5 7 8 8 7 7 8 8 8 7 6 7 6 7 13 17 19 21 23 24 25 26 25 26 27 26 25 25 25 26 27 27 27 27 27 28 29 27 26 26 25 24 25 25 24 24 24 24 23 23 23 23 25 26 25 24 24 25 24 23 22 20 19 18 17 16 15 16 16 13 10 10 11 10 10 10 10 10 10 10
4 5 3 5 6 4 2 8 13 11 6 6 8 4 5 5 8 6 6 8 8 6 7 8 8 9 9 7 7 6 6 9 13 17 21 23 24 24 25 25 26 27 28 26 26 27 27 28 28 28 28 28 26 27 28 26 25 25 25 24 24 24 25 25 24 24 24 23 23 24 25 26 26 25 24 24 23 22 20 20 19 17 17 17 18 16 14 12 11 12 11 11 11 11 10 10 10
5 5 4 5 8 6 3 5 8 10 8 7 9 8 9 4 3 5 7 7 7 7 7 8 7 7 8 7 7 7 7 7 9 15 21 23 23 23 23 25 26 27 28 28 27 28 28 28 30 29 28 29 27 26 27 27 25 24 24 24 24 24 25 25 24 24 25 25 24 25 25 25 26 26 25 25 24 22 20 20 19 17 17 19 19 16 15 14 12 12 12 12 11 11 10 9 9
7 7 6 5 6 8 6 5 7 11 10 9 9 10 13 9 4 5 7 7 7 8 8 7 8 8 7 8 8 8 8 8 9 16 22 22 22 23 22 23 25 26 27 28 27 27 28 27 29 30 28 28 27 26 26 27 26 24 24 23 24 24 25 25 25 25 25 25 25 25 25 25 25 25 26 26 25 24 21 20 20 19 19 21 20 17 17 16 13 13 14 13 11 11 11 10 10
10 9 6 5 6 6 6 5 7 11 9 8 9 10 11 10 9 8 7 8 9 10 9 8 8 8 7 7 7 8 8 8 11 18 22 22 23 23 23 23 24 26 26 27 27 27 28 28 27 30 30 27 26 26 27 28 28 26 25 24 25 26 26 25 26 26 26 26 26 25 25 25 25 25 25 26 26 26 24 23 22 21 21 22 22 20 19 18 16 16 16 15 13 12 11 11 11
8 8 8 7 6 5 4 5 7 9 7 7 10 10 11 9 9 9 8 9 10 11 10 9 8 7 7 8 8 9 9 9 13 18 20 22 24 25 25 24 25 26 26 27 28 28 29 29 28 29 31 30 28 28 29 29 30 30 28 29 29 28 27 27 27 28 28 27 27 26 26 26 26 26 26 26 27 28 27 25 24 24 24 24 23 21 20 20 18 18 18 17 16 14 13 13 12
4 5 7 7 7 4 2 5 6 4 2 5 7 9 11 9 8 9 8 10 11 11 11 11 11 9 8 8 9 8 7 8 11 15 18 22 24 26 26 25 26 27 28 29 30 30 30 30 31 30 30 32 32 31 31 31 31 31 30 31 31 30 29 30 30 30 30 30 29 29 29 29 29 29 28 28 28 29 29 27 26 26 26 26 25 23 22 21 20 19 19 18 18 17 16 14 13
3 3 4 5 6 3 4 6 5 3 1 3 4 7 9 7 8 9 9 9 9 10 11 12 12 12 11 10 9 9 8 7 9 10 14 20 23 26 26 26 28 29 30 31 31 31 32 32 32 31 31 33 35 34 32 31 30 29 29 29 29 29 29 30 31 31 31 31 31 31 32 32 32 31 29 28 29 30 30 29 28 27 27 28 27 26 24 22 22 21 21 20 19 18 18 15 14
4 2 5 3 4 4 2 4 5 4 2 3 3 5 7 7 7 8 9 9 9 10 13 13 11 13 14 12 10 10 10 9 9 9 11 16 20 23 25 26 28 27 28 30 31 31 33 34 34 33 33 33 35 35 34 31 29 27 27 26 26 26 27 27 28 29 30 31 32 32 33 33 33 32 31 29 29 30 31 31 30 29 28 28 27 27 26 25 25 24 23 23 21 19 19 17 16
5 5 6 3 4 3 3 4 5 3 3 3 2 4 6 7 8 10 9 10 12 12 13 13 13 12 11 11 11 11 11 11 11 11 10 13 18 22 26 28 27 27 28 30 32 33 33 35 35 34 34 33 33 34 34 32 29 27 26 25 23 24 25 25 27 29 31 32 34 35 35 33 33 33 32 31 30 30 31 31 31 30 29 29 28 28 28 28 27 27 26 25 25 22 21 19 17
5 7 8 5 6 3 7 6 3 0 3 4 3 2 5 5 7 9 7 8 12 12 13 15 14 12 10 9 11 11 10 10 11 12 12 13 19 23 26 27 27 28 31 32 33 34 34 34 34 34 34 34 33 32 33 33 32 29 28 28 27 26 27 29 32 33 33 35 36 35 34 33 33 32 32 31 31 31 32 32 31 31 31 31 30 30 30 30 29 29 28 27 27 26 23 21 20
4 6 10 8 4 2 6 6 3 1 3 3 4 3 4 5 7 8 5 6 10 10 13 16 13 11 10 10 11 11 10 9 9 11 12 13 18 21 23 27 30 31 34 34 33 33 34 33 33 34 34 34 34 32 32 34 35 33 31 31 31 30 30 32 34 32 32 34 34 33 33 33 33 33 32 32 32 33 33 33 32 32 32 32 32 31 32 31 29 29 29 29 28 27 26 24 22
3 3 8 9 4 2 4 5 3 2 0 1 3 2 2 6 8 8 6 9 11 10 12 13 12 12 11 11 11 12 12 11 9 9 10 11 16 21 24 29 33 34 34 32 32 34 35 34 33 34 35 35 35 34 33 34 36 36 33 32 32 33 33 32 30 29 29 30 31 31 31 31 32 33 34 33 33 34 34 34 33 32 33 33 33 33 33 32 30 29 29 30 29 28 29 28 24
3 3 5 7 5 3 4 4 3 0 3 1 4 3 2 6 6 6 6 10 14 14 12 10 10 12 12 13 13 13 13 12 11 11 10 10 14 21 26 30 33 33 32 31 33 34 34 34 33 33 35 36 35 35 34 35 37 37 35 33 33 34 34 30 26 25 27 28 28 29 30 31 32 32 34 34 34 34 35 35 35 34 35 34 34 33 32 32 32 31 30 30 31 30 31 31 28
3 2 6 6 3 4 4 2 1 1 1 4 5 5 3 5 5 5 5 8 13 12 9 8 9 11 13 13 12 11 9 9 11 11 11 13 17 21 23 26 28 29 29 30 31 31 31 32 32 33 36 36 35 35 35 36 37 37 37 36 36 34 32 29 26 25 26 28 29 28 28 29 31 32 34 34 34 34 34 35 36 36 36 36 36 35 33 32 32 32 31 31 32 32 32 32 31
5 5 7 7 4 5 3 1 4 2 3 5 8 9 5 3 5 6 5 7 9 7 6 6 8 10 12 12 10 10 8 8 9 9 10 14 20 23 22 21 23 25 27 28 28 29 30 31 32 34 35 35 35 35 36 37 37 38 39 38 37 35 32 29 27 27 26 27 29 29 29 28 28 30 33 34 34 34 34 35 35 36 36 36 37 37 36 34 33 32 31 31 33 33 33 32 32
8 5 6 5 3 4 2 2 4 1 4 4 8 10 9 6 5 6 7 7 8 7 7 7 8 8 8 8 8 8 8 7 8 8 8 9 11 14 18 19 20 22 24 26 27 28 28 29 30 32 33 33 34 34 36 37 37 38 39 38 37 35 32 29 29 29 28 27 28 29 29 29 29 29 31 32 34 35 35 35 36 36 36 36 37 37 38 36 34 32 32 32 33 33 33 32 31
6 5 7 5 2 1 1 1 1 4 4 2 4 6 7 8 7 7 10 7 7 7 7 6 6 6 6 5 5 4 5 6 7 7 7 7 7 8 14 17 18 21 23 25 27 27 28 29 30 31 33 33 32 32 33 35 35 36 37 36 35 33 31 31 31 30 30 30 29 29 29 31 31 31 32 33 34 34 35 36 37 37 37 38 37 37 37 37 35 34 34 34 34 33 33 33 33
7 7 7 6 4 3 4 4 2 4 3 2 1 1 2 5 4 10 16 16 10 7 7 7 6 5 5 5 6 6 5 6 6 6 6 6 7 10 14 17 18 21 24 25 26 27 28 29 29 31 32 31 29 30 31 31 33 34 33 32 32 32 32 32 32 31 31 31 31 30 30 31 32 33 33 33 33 33 34 36 37 37 37 37 37 37 37 37 36 35 35 35 35 34 34 34 34
7 5 5 6 5 4 5 4 3 3 0 2 1 2 3 3 2 9 14 15 10 4 5 8 7 5 5 5 6 6 5 5 5 6 7 7 9 13 15 17 19 22 23 24 25 27 28 29 30 30 30 29 28 29 29 30 31 32 32 32 32 32 32 33 33 32 31 30 30 31 30 31 32 33 33 33 32 32 33 35 36 36 36 36 37 37 37 37 36 35 34 34 34 34 34 35 34
5 3 5 6 4 3 2 2 3 4 2 1 3 3 4 4 5 7 6 7 7 5 5 7 8 6 6 5 5 6 5 6 6 6 7 7 10 13 15 16 18 19 20 22 24 25 27 28 29 29 29 28 27 29 30 31 31 31 31 32 32 31 31 31 32 32 31 29 28 29 30 31 31 31 32 32 32 31 32 33 35 36 36 36 36 36 37 37 37 36 34 33 34 34 35 35 34
5 5 7 5 1 4 3 1 0 2 1 3 4 4 4 2 7 9 9 8 7 7 7 8 8 7 7 6 6 6 6 7 7 7 7 7 9 12 14 15 17 18 19 21 22 22 23 23 24 24 24 24 24 25 27 28 28 28 28 29 29 29 29 29 30 30 30 29 29 29 29 30 31 32 31 31 30 30 30 31 32 34 35 35 35 35 36 36 36 36 36 35 36 36 36 35 34
6 7 7 4 4 3 2 1 0 1 3 3 4 6 4 2 5 6 9 10 8 8 8 7 7 7 7 7 7 7 8 8 8 7 6 7 9 11 13 14 15 15 16 17 17 18 18 19 19 20 20 21 22 22 23 25 25 25 26 26 27 28 28 29 29 28 28 28 30 31 30 30 31 32 32 31 30 30 30 30 30 32 34 35 34 34 34 35 36 36 36 37 37 37 36 34 32
4 5 6 5 0 2 3 3 2 4 5 4 4 7 5 6 5 2 6 10 8 8 8 7 8 8 8 7 7 8 8 7 7 6 6 6 8 11 13 13 12 12 12 13 14 15 16 16 16 17 17 18 19 20 21 23 23 24 25 25 26 27 28 28 28 28 28 28 28 29 29 30 29 29 30 31 30 30 30 30 30 31 32 34 35 34 33 34 35 35 35 34 34 33 33 32 31
0 3 6 5 2 3 5 3 2 3 4 4 3 3 4 7 7 6 8 10 10 10 8 8 9 9 9 8 7 8 7 7 7 7 7 6 8 11 12 12 12 13 12 12 13 13 14 14 14 14 14 14 15 17 18 20 21 22 23 24 25 26 27 27 27 27 27 28 28 27 26 27 28 28 29 30 29 29 29 29 29 30 31 33 34 35 35 35 35 35 34 34 33 32 31 32 31
5 6 9 7 3 1 2 3 2 2 3 3 4 4 5 5 6 10 11 11 11 11 8 8 8 8 8 7 7 6 6 7 7 6 7 6 7 10 11 11 13 13 12 12 11 11 11 12 13 13 14 14 16 17 18 19 20 21 22 24 25 26 26 26 26 26 26 26 27 27 25 24 24 25 26 27 27 27 27 27 28 30 31 32 33 35 37 36 36 35 35 35 35 34 32 32 31
8 7 8 8 5 3 2 4 5 3 2 3 3 5 7 5 3 7 9 8 9 10 8 7 7 7 7 6 7 7 6 7 7 6 6 6 7 10 11 11 12 12 12 11 11 10 10 10 11 12 14 15 16 17 18 19 20 21 22 23 23 24 24 24 24 24 25 25 24 24 24 23 22 22 23 24 25 25 26 26 28 29 29 31 32 35 36 37 36 36 35 36 35 34 31 29 29
Wind_Direction
315 318 319 319 319 318 300 268 271 254 213 221 83 97 59 46 100 113 103 147 115 66 18 35 41 29 40 347 86 84 40 39 34 21 107 149 155 150 128 121 129 129 136 137 126 122 120 121 117 117 116 112 102 98 99 99 100 102 105 100 98 97 94 93 91 88 88 89 89 93 95 94 89 86 86 87 87 85 90 91 94 95 87 87 88 87 87 87 87 89 89 85 83 79 77 75 74
317 318 316 311 302 307 305 250 287 267 213 102 63 84 111 106 133 120 107 89 80 82 47 54 48 33 67 301 100 89 53 55 70 77 103 135 141 125 123 127 132 135 132 129 132 125 124 125 121 120 117 115 110 107 106 105 104 105 107 102 99 95 94 92 88 88 89 91 89 92 96 95 90 91 91 90 96 95 98 99 100 103 96 92 91 91 89 88 87 88 87 84 80 78 75 74 73
317 315 317 314 283 231 285 291 241 276 274 97 74 103 135 125 84 80 80 79 82 89 69 63 67 21 344 38 59 72 79 81 90 90 109 134 135 125 131 133 135 139 135 133 137 133 132 130 126 124 119 121 119 114 111 108 109 113 110 102 99 96 95 92 89 91 89 89 89 91 94 96 93 93 92 90 95 95 104 106 99 99 97 95 93 93 91 87 86 87 86 83 80 77 75 73 72
313 318 315 314 290 214 278 286 241 293 354 82 93 119 126 104 88 76 75 83 90 101 95 93 100 16 355 22 50 77 95 90 107 114 136 148 141 136 137 136 135 136 136 140 147 146 140 136 131 125 120 125 125 119 116 114 114 120 117 106 101 100 96 93 92 91 91 94 96 98 98 103 100 94 94 93 94 90 100 108 99 96 95 93 92 92 90 88 87 86 85 83 80 76 74 71 69
309 319 296 286 305 297 303 305 275 330 14 20 92 103 93 97 98 92 87 83 87 98 112 154 103 69 49 12 27 78 100 103 118 127 149 145 139 141 138 136 135 134 137 143 153 151 145 143 134 125 121 125 127 121 117 116 114 122 121 111 106 106 101 100 98 95 101 104 101 104 104 107 106 101 98 97 97 92 98 105 99 94 92 90 89 89 87 87 86 84 84 81 78 75 71 69 68
309 309 276 252 269 340 307 273 277 78 17 354 84 100 82 93 102 105 96 83 67 60 20 280 101 92 102 50 55 53 56 121 131 130 136 136 140 145 139 138 135 135 137 140 154 154 148 149 138 127 122 123 126 122 121 116 111 119 120 114 111 110 109 109 108 106 109 108 103 106 108 108 108 105 102 101 100 96 99 102 98 93 91 90 88 88 86 86 85 83 82 79 75 72 69 68 69
306 315 266 241 255 231 242 264 289 79 12 356 60 87 92 97 106 115 115 104 81 78 355 344 83 84 118 113 81 52 35 96 130 131 134 135 143 144 140 142 136 137 138 139 156 159 152 154 147 134 126 125 126 125 124 121 116 120 119 115 113 111 113 116 119 117 113 111 109 109 112 113 114 110 102 102 102 99 100 99 99 98 95 92 89 88 87 87 85 83 81 78 73 70 69 71 73
281 298 290 302 280 223 247 270 344 78 41 13 51 39 81 108 119 128 136 141 149 152 172 349 38 318 147 141 105 75 60 85 107 124 133 137 144 146 144 143 137 138 138 143 159 157 152 154 148 139 135 132 129 129 128 127 123 121 122 120 115 113 116 119 122 119 117 118 113 109 112 115 116 112 104 104 106 102 99 98 97 97 95 91 90 89 89 88 85 84 80 76 72 71 72 75 77
250 209 311 312 278 257 251 256 104 101 116 95 86 43 53 109 132 135 131 126 141 149 153 176 160 111 122 104 95 107 91 96 107 122 131 137 147 148 145 144 141 138 140 153 163 158 156 155 148 143 141 138 138 137 133 132 125 121 126 128 121 118 116 113 113 113 115 114 108 105 108 109 109 110 106 103 104 103 100 99 97 97 97 92 92 93 93 90 87 84 80 77 74 74 74 76 78
244 182 305 293 280 268 251 218 107 106 111 91 102 117 89 114 148 142 135 115 131 136 121 139 135 280 91 106 104 121 123 114 117 127 132 139 149 148 144 144 143 140 143 155 159 161 160 156 154 152 147 144 147 147 144 142 134 132 138 135 130 129 120 112 111 110 111 112 111 110 111 113 115 114 108 103 102 103 102 102 101 99 99 97 99 100 98 95 91 87 83 79 76 77 75 76 77
269 186 146 302 269 253 269 104 117 121 113 106 97 115 122 137 166 147 138 113 128 121 103 124 134 240 196 104 93 127 138 132 126 133 136 141 152 149 142 141 142 143 144 147 153 162 163 163 162 159 154 149 152 157 157 152 144 142 146 141 135 135 129 124 121 117 119 120 118 116 117 122 125 122 115 112 106 105 109 109 109 107 106 106 106 105 105 102 97 93 87 83 79 78 76 75 75
283 257 162 247 265 263 320 48 125 114 121 140 113 108 129 138 169 173 146 120 136 131 135 183 140 218 177 102 103 140 144 140 135 139 139 144 153 145 137 137 141 144 142 144 148 156 164 169 166 162 159 155 155 161 164 158 153 150 149 146 140 137 134 136 135 130 129 124 125 130 133 134 133 133 131 127 118 117 117 113 114 111 108 109 108 107 106 105 102 97 90 84 81 77 76 74 74
283 288 237 239 273 290 332 344 91 99 126 134 109 116 151 152 179 188 148 129 141 149 147 165 82 6 116 94 118 147 151 146 141 141 143 149 152 142 137 137 139 144 142 145 146 148 157 162 162 164 163 164 161 160 162 160 159 154 148 147 146 140 138 143 145 140 137 136 144 149 146 143 140 140 141 139 134 127 113 111 120 116 115 116 114 113 111 109 105 99 92 85 80 76 75 75 75
263 308 313 271 283 294 314 323 66 113 141 87 93 141 166 162 178 162 120 129 115 121 107 100 45 2 93 118 138 163 158 149 144 142 144 150 151 143 140 141 140 143 143 147 151 148 152 155 160 166 166 169 170 165 158 160 164 157 151 152 153 147 143 147 152 152 153 155 156 157 156 152 150 148 149 150 146 136 122 121 130 127 125 126 125 123 117 111 106 99 92 85 78 77 75 76 77
260 330 335 287 292 289 254 271 19 77 102 87 67 155 148 54 23 34 42 79 77 79 95 75 17 2 67 145 159 167 153 145 145 145 144 148 150 141 136 142 145 146 148 151 155 153 155 160 162 165 168 172 174 174 164 163 172 170 163 160 160 156 149 153 160 163 164 166 160 161 165 161 157 156 158 160 156 148 140 138 141 136 127 130 136 128 120 112 106 100 90 85 78 75 76 76 79
277 16 350 279 274 276 189 192 286 24 79 79 336 165 138 76 22 51 24 37 95 105 86 81 28 35 34 36 127 147 148 142 145 146 142 144 149 143 132 140 150 151 154 157 160 158 159 164 166 166 170 174 174 176 176 171 177 182 178 171 171 170 163 164 170 170 165 168 168 169 171 165 163 163 167 166 161 159 155 152 155 148 134 130 134 130 130 121 109 101 89 84 77 75 78 73 75
280 70 242 258 242 252 187 188 186 139 114 99 191 213 151 115 35 77 66 302 111 138 104 79 70 74 62 80 122 139 144 143 146 146 143 143 146 150 147 155 160 156 163 165 166 166 163 167 170 168 169 176 173 176 184 178 179 185 187 186 184 185 180 175 178 177 170 164 163 168 165 159 160 163 168 168 164 164 164 165 168 160 143 136 133 129 133 127 115 103 89 82 75 79 82 68 66
238 158 206 229 228 245 223 163 113 129 123 123 150 211 220 132 153 121 121 238 132 147 139 99 79 77 85 108 126 136 141 145 149 149 149 150 152 156 163 180 173 163 172 171 171 174 170 170 172 169 169 177 178 181 186 182 183 185 189 193 193 193 190 184 183 181 177 169 157 154 150 140 138 149 166 168 166 168 170 174 173 162 147 140 134 121 118 118 111 101 88 83 80 81 82 62 51
211 216 227 229 223 243 14 52 52 98 114 118 114 71 329 100 142 139 152 199 173 171 162 141 117 99 101 121 132 138 144 151 157 159 160 162 165 165 170 188 182 170 177 176 174 177 177 175 174 174 173 177 180 185 186 182 184 184 190 196 196 194 193 190 188 188 186 182 166 149 147 134 136 163 184 175 170 172 172 174 170 159 145 135 128 116 106 105 104 104 93 91 90 82 76 55 31
207 220 230 242 251 57 58 64 67 56 87 116 107 84 75 55 93 143 195 214 183 191 183 163 155 142 144 142 142 146 153 160 166 170 171 172 175 173 174 186 187 177 178 181 178 178 181 180 177 177 177 176 179 185 186 185 180 179 189 195 194 192 195 193 191 196 190 188 171 154 161 162 169 193 201 188 179 173 169 169 164 154 149 141 134 125 113 111 114 115 105 104 93 77 69 50 337
185 211 224 265 304 358 83 77 78 54 29 94 108 124 158 87 49 155 213 240 196 207 192 180 181 158 154 160 155 157 164 168 173 180 179 180 183 180 178 184 187 184 180 183 184 182 182 183 182 179 180 179 182 185 185 185 174 175 188 196 195 188 195 191 187 195 188 191 174 156 176 183 191 212 210 199 186 172 169 168 163 159 159 150 148 146 136 132 140 144 132 121 78 62 61 348 218
212 227 242 298 332 348 85 71 69 65 15 88 129 176 125 88 45 213 229 244 187 223 112 160 178 155 156 163 160 163 170 173 180 186 184 185 190 186 182 181 184 189 184 183 185 186 184 184 185 182 183 182 185 189 183 183 177 178 188 195 196 188 193 185 183 193 185 197 186 163 192 197 195 216 218 196 177 185 185 171 164 173 176 159 164 173 158 166 181 176 131 109 89 101 194 353 36
224 233 237 259 307 333 91 84 52 42 213 154 154 21 68 150 233 206 220 241 160 81 60 36 44 141 154 159 159 166 173 178 185 190 189 186 190 191 185 179 183 191 186 184 185 188 187 185 186 184 186 183 185 190 185 188 185 183 190 191 191 189 195 184 183 195 188 199 196 174 200 208 194 214 223 185 170 210 210 183 170 183 205 215 201 163 203 232 201 179 141 145 173 173 179 17 14
203 229 224 225 236 210 106 112 122 14 175 93 70 31 292 224 250 111 219 253 215 95 91 61 56 131 148 156 164 174 177 183 189 191 193 190 190 193 189 181 184 191 186 185 188 190 190 187 187 185 187 185 184 185 185 193 189 186 194 196 193 188 197 191 186 199 196 201 201 184 199 212 194 202 222 189 178 206 207 194 194 200 211 231 224 174 218 235 175 184 211 210 242 109 287 322 292
199 233 234 208 209 169 118 133 162 164 150 80 82 206 249 223 140 10 248 259 240 130 112 99 95 136 150 163 172 179 179 185 190 190 194 195 193 192 193 188 186 190 188 189 190 192 194 189 188 187 187 188 186 183 186 195 193 190 196 201 199 189 194 194 190 201 201 204 207 194 197 209 199 199 215 201 192 197 195 196 197 206 207 209 222 202 217 220 174 199 207 197 286 271 271 279 262
193 222 236 174 181 177 136 155 166 169 178 136 164 226 241 194 103 251 239 241 217 136 127 128 145 161 164 169 176 185 182 185 187 188 193 196 194 192 194 195 191 191 191 192 189 190 194 190 189 190 189 189 188 184 185 193 195 193 195 201 203 194 192 192 192 199 201 206 211 205 198 202 204 206 213 209 204 199 195 202 198 201 205 204 222 213 210 203 185 218 211 201 240 242 249 265 279
181 215 226 186 187 193 157 182 175 167 189 162 206 243 216 147 158 240 242 222 168 135 147 155 164 183 184 179 181 188 188 188 187 186 190 194 195 193 194 199 199 196 194 194 191 189 192 190 191 192 191 191 190 188 186 192 198 197 196 199 203 202 197 190 192 198 201 205 210 211 204 199 201 208 216 214 211 207 203 211 204 199 203 205 212 205 205 202 193 226 227 209 223 232 237 249 280
274 217 212 188 192 191 171 208 189 150 188 181 211 282 242 159 202 224 208 135 140 150 172 172 181 194 192 190 182 186 192 191 187 185 188 193 196 194 195 200 202 202 198 195 194 192 192 192 192 193 193 193 192 192 190 191 197 200 199 199 202 207 205 195 193 198 201 205 207 212 209 201 196 200 215 218 213 213 212 218 212 204 205 204 208 201 200 207 200 220 233 226 235 245 251 255 265
279 205 182 192 205 212 196 210 195 162 187 166 126 312 250 215 215 218 208 169 156 181 188 179 194 201 195 194 183 185 193 187 185 191 195 195 196 196 199 202 201 202 202 198 195 195 195 194 195 194 195 196 194 195 195 192 195 201 201 200 202 207 210 202 198 200 200 204 205 212 216 209 200 196 204 212 211 213 216 221 216 207 206 206 215 210 201 209 208 218 235 241 249 252 253 257 262
155 183 208 205 207 227 208 204 200 183 177 151 133 280 239 225 224 214 205 178 169 194 201 186 192 203 202 195 184 186 193 190 188 196 200 197 197 199 203 204 202 202 202 199 196 195 195 195 195 195 196 198 197 196 198 196 194 201 203 202 203 206 210 207 205 206 205 206 205 208 217 217 211 205 204 208 209 209 209 215 213 208 209 206 211 217 213 213 212 218 232 242 250 254 253 255 259
179 191 216 216 222 228 201 192 193 187 170 148 148 240 245 253 241 209 195 175 171 192 205 195 190 199 207 199 189 188 194 198 198 200 201 200 199 201 204 204 202 202 201 199 198 196 194 195 195 195 196 201 201 198 199 200 198 201 204 203 205 207 212 211 209 209 211 213 212 212 217 220 219 215 213 214 215 213 208 210 213 211 212 207 207 217 221 218 214 218 229 236 246 254 254 256 256
198 201 197 208 232 252 196 181 187 187 170 155 153 237 250 246 255 213 165 161 178 199 209 203 196 194 200 202 196 193 195 200 203 203 203 203 202 202 204 203 201 201 200 199 199 198 196 196 197 196 197 202 205 202 201 203 202 202 206 208 207 209 213 215 214 211 212 216 218 220 223 224 224 222 218 218 222 222 214 213 217 215 212 208 210 217 221 218 215 223 232 235 243 249 249 254 257
208 215 201 198 205 245 209 173 189 181 151 175 183 229 254 226 241 222 156 165 185 204 220 214 207 197 192 195 198 201 201 197 201 205 206 205 204 204 203 202 202 201 201 200 199 199 198 198 200 200 199 201 205 206 203 203 205 205 208 210 209 210 215 217 217 214 213 216 220 224 227 228 228 226 222 219 223 225 219 214 217 218 213 209 212 216 217 216 214 222 232 233 237 243 243 249 253
190 207 223 224 199 209 200 159 190 177 161 193 197 230 248 233 225 195 170 184 193 203 223 225 224 214 192 186 192 200 204 200 199 203 207 207 205 204 203 202 203 202 201 201 200 200 199 199 201 202 203 204 205 206 205 204 204 205 208 211 209 210 216 218 218 218 217 218 221 224 229 231 230 228 225 222 222 224 222 216 214 217 213 210 213 214 213 217 216 219 227 231 235 238 236 240 247
180 195 210 235 214 206 196 158 177 183 188 204 196 223 244 247 238 197 180 194 208 217 225 230 233 226 202 186 191 198 203 207 202 200 206 208 204 202 202 201 201 201 201 201 201 201 200 201 202 203 204 207 207 207 208 207 205 205 206 209 210 212 216 217 216 217 219 219 221 223 227 231 232 230 226 225 225 223 221 218 214 214 214 212 212 211 212 217 217 216 224 229 230 236 236 233 238
192 198 199 227 230 217 200 145 161 182 189 208 209 227 241 241 235 222 201 197 212 223 225 232 231 225 213 195 193 201 205 210 205 202 203 203 203 201 199 200 199 200 200 200 201 201 201 202 203 204 204 205 205 206 209 210 210 209 208 208 209 211 213 215 216 217 219 220 220 221 223 227 231 231 228 226 227 226 223 221 216 212 214 216 212 210 212 217 218 217 222 224 223 232 238 237 237
199 202 198 218 231 231 206 152 163 178 183 206 215 235 245 241 238 231 217 206 213 219 219 225 225 222 218 208 200 199 205 211 207 205 201 197 200 200 198 199 198 198 200 200 201 202 202 203 203 204 205 204 204 206 208 209 209 210 211 212 212 211 211 214 217 219 221 222 221 221 221 223 227 230 230 228 227 228 226 222 219 214 214 217 217 215 215 218 221 220 221 223 225 228 232 238 238
216 216 203 207 221 233 144 132 165 168 174 221 221 242 249 243 243 238 222 215 218 215 215 219 222 224 222 214 209 204 203 203 201 204 199 193 194 196 197 197 196 196 198 200 202 203 203 204 205 205 205 206 206 207 208 210 210 210 211 214 215 214 214 215 218 220 221 222 222 222 221 223 225 228 230 230 228 227 226 222 219 217 216 217 219 219 217 219 221 219 219 221 225 228 228 233 230
237 260 237 210 200 186 98 115 148 121 87 247 251 266 262 253 249 243 231 229 228 217 217 220 218 223 225 219 213 211 210 201 194 198 194 190 189 191 193 196 198 199 199 200 202 203 204 205 206 206 206 208 209 209 210 212 213 213 214 216 216 216 217 219 221 223 223 222 221 222 223 224 225 225 226 228 227 225 224 221 218 218 218 218 219 219 218 219 219 217 217 218 220 225 227 227 224
209 229 256 234 186 193 156 149 149 135 215 285 325 293 278 272 266 257 240 238 243 230 227 227 219 221 224 222 217 211 208 202 193 194 192 190 188 188 192 197 200 201 201 202 203 203 204 206 207 207 207 209 211 211 211 212 214 216 218 221 221 222 222 224 227 228 227 225 224 224 225 225 224 224 223 223 225 223 222 221 219 218 218 219 219 219 217 217 217 217 217 218 217 218 221 219 221
196 207 239 229 212 212 104 135 153 146 238 269 325 306 280 251 243 250 240 230 238 236 232 233 226 222 222 222 226 221 212 202 193 194 195 190 189 192 196 200 201 201 203 205 205 204 206 208 209 208 208 209 211 212 211 210 212 215 218 220 223 224 224 223 225 226 225 225 226 226 227 226 225 225 223 220 221 223 221 221 220 218 217 219 219 218 218 217 217 218 218 219 217 214 215 214 215
206 212 227 238 248 204 114 132 143 78 260 202 168 273 280 253 236 242 235 218 230 232 229 233 230 223 221 220 227 231 225 210 196 195 195 191 192 195 198 199 199 201 207 209 208 208 208 210 210 209 210 211 212 213 212 209 208 211 212 212 213 214 215 217 219 220 220 222 226 227 227 227 226 227 227 221 219 221 222 221 220 218 216 218 219 218 219 219 218 218 219 219 217 216 215 212 211
225 209 209 222 261 76 122 145 132 245 258 178 168 217 270 300 280 263 276 256 241 230 224 228 227 221 218 219 222 225 227 220 207 199 194 190 190 192 196 198 199 204 210 211 209 210 211 210 210 210 210 212 212 212 212 211 209 210 210 211 211 211 214 218 220 220 220 222 224 225 226 227 226 227 228 226 221 221 223 222 220 219 217 218 219 219 219 219 219 218 219 219 219 218 216 212 210
242 234 189 194 201 112 137 158 176 220 69 158 211 200 265 285 273 264 281 282 270 249 231 224 217 216 216 220 220 218 221 219 214 208 199 192 187 188 194 198 202 209 211 208 207 210 211 210 210 210 211 212 212 211 211 212 211 210 211 213 215 217 220 223 223 222 223 223 223 224 225 226 227 226 227 227 224 223 224 223 221 219 219 219 219 220 220 219 218 218 220 220 220 219 216 213 212
251 265 168 168 184 155 133 149 213 257 60 249 217 149 249 262 262 253 234 252 263 252 238 223 210 212 214 219 221 218 220 219 217 218 214 207 197 193 195 200 206 210 208 206 208 210 210 210 210 210 211 212 212 210 210 212 213 212 212 214 218 221 224 226 226 225 224 223 223 225 226 226 226 226 226 228 227 226 227 226 223 221 221 220 220 221 221 219 218 218 220 219 217 217 216 215 215
236 197 108 90 92 95 99 147 172 59 2 232 190 158 223 258 255 243 209 227 249 248 239 228 212 209 212 217 221 218 216 216 216 218 218 217 215 209 203 203 206 207 207 208 209 209 209 210 210 210 212 213 212 211 210 212 214 213 213 215 219 222 224 225 225 226 226 223 222 223 223 223 224 225 227 228 228 227 228 229 227 224 223 223 222 222 221 220 220 219 220 218 215 214 215 216 217
145 124 94 76 63 71 68 28 67 52 267 212 179 176 192 257 242 217 210 218 229 236 232 234 226 213 211 212 214 217 213 209 208 210 215 214 215 214 208 202 202 203 206 207 208 208 209 210 210 212 214 213 212 212 211 213 214 214 215 216 219 221 222 221 222 224 224 222 221 221 220 221 224 226 226 227 227 227 227 229 229 227 226 225 225 224 223 223 221 219 219 218 215 214 215 217 219
138 131 116 99 69 60 51 23 69 221 247 191 186 184 183 228 233 217 242 220 198 213 212 227 237 215 201 198 201 213 209 197 194 195 200 195 193 197 196 194 193 195 200 203 206 208 208 209 211 213 215 214 213 212 212 214 214 216 218 218 219 221 220 220 221 222 222 221 222 223 223 223 226 228 227 225 226 226 226 228 230 229 228 227 227 226 225 223 222 219 218 216 215 215 215 216 218
156 146 140 129 116 101 176 187 169 230 245 231 212 187 194 234 238 247 272 249 195 205 208 225 238 193 150 145 153 156 154 154 166 177 179 176 172 178 187 190 189 191 197 202 205 207 208 210 210 213 216 216 214 214 215 216 217 218 221 221 221 221 220 221 222 222 222 221 222 223 223 223 224 225 225 226 226 226 226 227 229 230 231 230 229 228 225 223 222 220 218 217 216 216 216 217 217
176 164 157 160 160 172 205 199 209 236 248 271 246 135 238 270 247 227 245 247 228 212 208 213 222 187 144 137 142 132 135 148 157 168 175 183 192 192 194 197 195 197 202 204 206 208 209 210 211 214 218 217 216 216 217 219 221 222 224 224 225 224 223 224 224 224 224 223 222 223 223 223 223 223 224 226 228 227 228 229 230 231 232 232 230 228 225 223 222 220 218 218 218 218 219 219 219
185 171 158 180 180 185 196 184 203 209 66 313 251 162 196 210 231 215 226 246 249 240 224 204 202 193 146 135 148 148 161 178 175 180 190 194 194 192 194 198 201 204 207 208 210 211 211 212 213 216 220 219 218 218 219 221 223 225 226 227 227 227 228 228 228 228 227 225 224 223 225 226 226 226 226 228 230 230 230 230 230 231 231 230 229 227 225 222 221 219 218 219 219 219 219 219 220
201 165 167 206 205 172 161 170 202 166 99 275 223 236 222 204 273 261 236 258 254 245 243 204 191 177 148 157 181 182 195 206 204 205 208 201 190 189 190 193 199 204 206 208 210 211 211 213 214 217 221 220 219 220 221 222 224 225 226 227 228 229 231 231 231 231 230 229 229 228 228 229 228 228 228 229 231 232 231 230 230 230 229 229 228 227 224 222 219 218 220 222 221 221 220 220 221
184 188 189 199 106 102 125 225 252 107 216 227 186 250 282 277 282 262 229 238 243 233 231 213 199 173 168 198 205 201 215 219 216 210 202 190 180 184 188 191 196 200 203 207 209 210 212 213 215 218 220 221 220 221 222 223 224 225 227 228 229 229 231 232 233 233 232 232 233 233 231 231 230 229 229 230 230 231 231 230 229 229 229 229 228 227 225 222 220 221 223 224 223 222 222 222 221
161 194 183 126 47 50 112 189 123 126 240 241 181 219 239 211 262 254 213 218 229 227 220 212 207 187 190 213 210 204 211 216 215 194 171 169 172 180 188 194 200 203 207 210 211 213 215 216 217 218 220 220 219 220 221 222 224 226 227 228 229 229 230 232 233 234 234 234 233 233 233 234 234 232 231 231 230 229 231 231 230 230 230 229 227 227 225 222 222 223 224 223 221 220 219 219 220
161 189 160 133 136 216 171 182 190 184 224 261 221 215 214 209 224 219 198 207 216 226 212 197 202 198 203 217 213 209 208 208 204 174 161 171 180 185 188 192 195 196 201 204 205 209 211 212 214 215 219 220 220 220 220 221 224 226 228 230 231 231 232 233 235 235 235 234 233 235 236 237 238 235 232 231 229 228 230 230 231 231 231 229 228 227 224 221 220 220 220 220 219 217 217 216 217
185 189 173 179 209 184 178 193 190 169 204 254 257 220 227 224 206 188 197 198 202 214 207 198 201 198 205 212 206 208 204 195 189 179 181 185 186 190 189 188 185 183 185 188 192 197 197 199 202 203 208 211 213 215 216 218 221 224 228 230 230 231 231 232 234 235 235 235 234 235 237 239 240 237 233 231 230 230 231 231 232 233 232 230 229 227 226 223 222 222 223 223 222 222 221 219 218
180 185 183 187 185 128 161 212 213 154 178 232 253 249 256 244 202 197 201 194 197 206 204 205 203 191 192 185 172 179 181 182 186 182 181 176 171 174 175 176 176 176 178 180 184 187 186 190 195 197 199 202 206 209 210 213 215 218 223 225 227 227 227 229 231 232 234 236 236 236 238 241 241 237 233 231 231 232 234 235 236 236 234 234 232 229 227 226 224 224 224 223 222 220 218 216 214
181 187 184 181 178 136 139 213 213 190 191 195 210 253 270 266 202 186 189 182 190 198 195 199 193 169 155 143 143 154 160 178 191 180 170 162 156 159 160 163 168 171 174 177 180 182 185 191 196 200 204 208 213 214 215 216 216 218 222 225 228 229 229 230 231 234 236 238 239 237 239 242 242 239 236 236 240 242 243 243 241 238 238 239 236 231 228 225 224 223 221 219 217 213 212 212 209
Height
805 805 803 804 801 803 802 802 819 817 814 825 819 824 826 815 816 819 823 822 822 822 816 816 815 817 823 827 829 833 834 835 841 843 850 848 841 845 844 846 848 849 850 851 853 854 856 857 858 859 860 860 861 861 861 862 863 863 864 865 865 865 865 865 865 865 866 865 866 866 866 867 867 868 868 868 868 869 869 869 870 869 869 870 870 870 870 870 870 871 871 871 871 871 871 871 871
805 805 803 804 801 806 806 801 825 825 817 830 823 825 825 815 818 821 823 822 824 821 815 816 817 819 820 821 822 828 837 836 835 838 841 841 842 845 844 847 849 849 851 851 853 854 856 857 858 860 860 861 861 862 862 862 863 863 864 865 865 866 866 866 866 866 866 866 866 866 867 867 868 868 869 869 869 870 870 871 871 871 871 871 871 871 872 872 872 872 872 872 872 872 872 872 872
806 806 803 805 802 804 807 806 826 829 823 835 832 821 818 819 822 821 820 820 821 817 817 819 820 821 821 824 825 832 842 838 835 837 840 842 843 844 846 848 849 850 851 852 853 854 856 857 858 860 860 861 861 862 863 863 863 864 864 865 866 866 866 866 866 867 867 867 867 868 868 869 869 870 870 870 871 871 871 872 872 872 872 872 873 873 873 873 873 873 873 873 873 873 873 874 874
806 806 804 805 807 808 811 817 823 824 827 833 834 822 814 820 822 822 820 819 818 817 821 822 825 823 823 831 829 832 841 838 837 838 840 843 843 845 847 848 850 850 851 852 852 854 856 857 859 860 861 862 862 863 863 864 864 864 865 866 866 866 867 867 868 868 868 868 869 869 870 870 871 871 872 872 872 872 873 873 873 873 873 874 874 874 874 874 874 874 874 874 874 875 875 875 875
806 806 805 806 813 814 815 822 818 822 830 825 829 823 813 817 820 823 821 819 818 819 822 822 829 824 823 829 827 836 841 838 838 838 840 842 844 846 847 849 850 850 853 853 852 854 855 857 858 860 861 862 863 863 864 864 865 865 866 866 867 867 868 868 869 869 870 870 870 871 871 872 872 873 873 873 874 873 874 874 874 875 875 875 875 875 875 876 876 876 876 876 876 876 876 876 876
806 805 804 805 810 810 819 829 822 824 824 816 823 821 813 816 819 823 822 821 819 820 822 822 827 826 829 830 829 837 837 836 838 838 839 842 844 846 848 849 850 851 853 853 853 854 856 857 858 860 861 862 863 864 865 865 865 866 866 867 868 868 869 869 870 870 871 871 872 872 872 873 874 874 874 875 875 875 875 875 876 876 876 877 877 877 877 877 877 877 877 877 877 877 877 877 877
807 808 806 810 811 810 825 830 822 824 820 812 818 817 813 816 818 822 824 826 825 823 823 823 822 827 835 832 834 837 834 835 835 837 839 842 845 846 848 850 851 852 853 854 853 854 856 857 858 860 861 862 863 864 865 865 866 867 867 868 868 869 870 870 871 871 871 872 873 873 873 874 874 875 875 876 876 876 876 876 877 877 878 878 878 878 878 879 878 878 878 878 878 878 878 878 878
808 811 807 816 822 818 827 825 818 822 819 813 814 814 813 815 817 822 825 826 828 826 825 825 821 831 834 828 838 840 835 836 835 838 840 842 845 846 849 850 851 852 854 853 853 855 856 858 859 860 861 863 863 865 865 866 867 867 868 868 869 870 870 871 871 872 872 873 873 874 874 875 875 876 876 876 877 877 877 878 878 878 879 879 879 879 879 880 880 880 879 879 879 879 879 879 879
807 811 811 820 828 824 825 822 818 818 818 815 815 816 813 813 816 820 824 825 826 826 827 825 823 833 833 831 841 840 836 838 838 840 841 843 846 847 849 850 851 852 853 853 853 855 856 858 859 860 862 863 864 865 866 866 867 867 868 869 870 871 871 871 872 873 873 874 874 874 875 876 876 877 877 877 878 878 878 879 879 879 879 880 880 880 881 881 881 881 880 881 880 880 880 880 881
808 811 815 822 828 830 828 821 819 818 816 814 814 815 814 814 815 818 822 825 824 825 826 822 825 831 830 836 842 838 838 839 839 842 842 845 846 847 849 850 851 852 853 853 854 855 856 858 859 861 862 863 864 865 866 866 867 868 869 869 870 871 871 872 872 873 874 874 875 875 876 876 877 877 878 878 878 879 879 880 880 880 880 881 881 881 881 881 882 882 882 882 882 882 882 882 882
815 812 814 826 832 834 830 823 821 818 815 814 814 813 813 814 815 818 820 823 823 825 826 824 829 829 829 838 842 839 838 839 840 843 843 845 847 848 849 850 851 852 853 853 855 855 857 858 859 861 862 863 864 865 866 867 868 868 869 869 870 871 872 873 873 874 874 875 875 876 876 877 877 878 878 879 879 880 880 880 880 881 881 881 882 882 882 882 883 882 883 883 883 883 883 883 883
821 817 817 832 834 829 825 822 821 818 815 816 818 814 812 814 818 820 820 823 823 826 827 826 828 825 829 839 841 839 838 840 841 843 845 846 847 849 849 850 851 852 853 854 855 855 857 858 859 861 862 863 864 865 866 867 868 868 869 870 870 871 872 873 873 874 875 875 876 876 876 877 877 878 878 879 880 880 880 881 881 881 882 882 882 882 883 883 883 883 884 883 884 884 884 884 884
822 821 823 833 827 823 823 821 819 819 820 818 819 815 812 815 819 819 819 822 823 827 827 823 822 823 832 839 839 839 838 840 840 843 845 846 848 849 850 851 852 852 853 854 855 856 857 858 859 861 862 863 864 865 866 867 868 868 869 870 871 871 872 873 873 874 875 875 876 876 876 877 877 878 879 879 880 880 880 881 881 882 882 883 883 883 883 883 884 884 884 884 885 885 885 885 885
820 818 824 831 824 822 822 822 821 822 826 820 817 815 812 816 816 815 817 823 825 825 823 818 819 826 834 839 842 840 837 839 840 842 844 847 848 849 850 851 852 853 854 855 855 856 857 858 859 860 861 863 864 865 866 867 868 869 869 870 871 871 872 873 873 874 875 875 876 876 877 877 878 878 879 880 880 881 881 882 882 882 883 883 883 883 884 884 884 885 885 885 885 886 886 886 886
817 817 822 830 828 825 821 822 821 824 828 821 817 815 814 816 813 815 818 824 827 820 819 819 820 829 833 835 840 837 835 838 840 842 844 847 848 849 850 851 852 853 854 855 856 857 857 858 858 860 861 862 864 865 866 867 868 869 869 870 871 871 872 873 873 874 875 875 876 877 877 878 878 879 880 880 881 881 882 882 882 883 883 883 883 883 884 884 885 885 885 886 886 886 886 887 887
814 817 825 832 833 830 823 820 820 826 828 821 818 814 817 818 813 818 818 819 825 819 819 823 822 828 830 828 831 832 834 837 839 842 843 846 847 849 850 851 853 853 854 855 856 857 858 858 858 860 861 862 863 864 866 867 868 869 869 870 871 872 873 873 874 874 875 876 876 877 877 878 879 879 880 881 881 882 882 883 883 883 884 884 884 884 884 885 885 886 886 886 887 887 887 887 887
814 820 831 836 834 831 824 819 820 826 826 821 819 815 819 822 816 817 816 816 823 822 822 825 823 825 828 827 828 830 835 837 839 842 843 846 847 848 850 851 852 852 854 854 856 857 858 859 859 860 861 862 863 863 865 866 867 868 869 870 871 872 872 873 874 874 875 876 876 877 878 878 879 879 880 881 881 882 883 883 883 884 884 884 884 884 885 885 886 886 886 887 887 887 888 888 888
818 825 834 837 832 826 818 815 815 817 821 821 819 817 818 823 821 817 818 820 822 824 824 825 826 827 828 829 830 832 835 838 840 841 843 845 846 847 849 850 851 852 853 854 855 856 857 858 859 860 861 862 862 863 864 865 866 867 869 870 870 871 872 873 874 875 875 876 877 877 878 878 879 880 880 881 882 882 883 883 884 884 884 884 885 885 885 886 886 886 887 887 887 888 888 888 889
822 826 832 832 824 817 810 811 812 812 818 819 817 817 818 820 819 818 823 826 824 827 827 826 829 831 831 830 832 834 835 838 840 841 842 843 845 846 847 849 850 851 852 853 853 855 856 857 858 859 860 861 862 862 863 864 866 866 868 869 869 871 872 873 874 874 875 876 877 877 878 879 879 880 880 881 881 882 883 883 884 884 884 885 885 885 886 886 886 887 887 887 888 888 888 888 889
820 824 832 827 816 812 808 809 812 811 813 816 818 818 818 818 816 819 823 825 824 827 826 826 830 832 832 831 831 833 835 837 839 840 841 842 843 844 846 847 848 849 850 851 852 853 855 856 857 858 859 861 862 862 862 863 865 866 867 867 868 870 871 872 873 874 875 876 877 877 878 879 880 880 880 881 881 882 882 883 883 883 884 884 885 885 886 886 886 887 887 888 888 888 888 889 889
819 822 828 820 812 814 810 809 812 812 812 815 819 819 820 817 815 819 822 825 826 823 819 820 823 826 829 830 830 832 834 835 837 838 839 840 841 842 844 845 846 847 848 850 851 852 853 854 856 857 858 860 861 862 862 863 864 865 866 866 868 868 870 871 872 874 874 875 876 877 878 879 880 880 880 881 881 881 882 882 883 883 884 884 885 885 885 886 886 887 887 888 888 888 889 889 889
819 819 819 815 813 816 814 812 813 813 813 815 819 820 819 817 817 819 821 826 826 819 815 813 813 817 823 826 828 830 832 833 834 836 837 839 840 841 842 843 845 846 847 848 849 850 852 853 854 855 857 858 860 861 862 863 864 865 866 866 867 868 869 870 872 873 874 875 876 876 878 879 879 879 880 880 880 881 881 882 882 883 883 884 884 884 885 886 886 887 887 887 888 888 888 889 888
821 820 815 814 813 816 816 814 816 814 815 818 819 819 817 819 821 818 819 822 818 813 811 811 810 812 818 821 825 828 830 831 832 833 834 835 837 838 840 841 843 844 845 846 848 849 850 851 853 854 855 857 858 860 861 862 863 865 865 866 867 868 869 869 871 872 873 874 875 875 877 878 878 879 879 880 880 880 881 882 882 882 882 883 884 884 885 885 886 886 887 887 888 888 888 888 888
820 821 815 813 812 814 815 815 817 816 817 818 818 819 819 822 822 817 818 816 812 811 810 810 811 812 817 820 822 824 826 828 829 830 831 833 835 836 837 839 841 842 843 845 846 847 849 850 851 853 854 855 857 858 860 861 862 863 864 865 866 867 868 869 870 871 872 873 874 874 875 877 877 878 878 879 880 880 881 881 882 883 883 883 884 884 885 885 886 886 887 887 887 888 887 888 888
817 819 814 811 812 813 814 816 817 816 817 817 818 821 820 819 819 819 818 814 810 810 810 811 812 814 817 819 821 822 824 826 827 829 830 831 833 835 836 837 839 840 841 842 844 845 846 848 850 851 852 853 855 857 858 859 860 862 863 863 864 866 867 868 869 870 871 872 873 874 874 875 876 877 877 878 879 880 880 881 882 882 883 883 883 884 884 885 885 886 886 886 887 887 887 887 887
815 815 813 812 813 813 814 816 817 817 817 817 821 822 819 816 818 820 815 811 810 809 811 812 813 815 816 818 819 820 821 823 825 827 828 829 831 833 834 835 836 837 838 840 841 843 844 846 848 849 850 852 853 855 857 858 859 860 861 862 863 864 865 866 868 869 870 871 871 872 873 874 875 876 876 877 878 878 879 880 881 881 882 882 883 883 884 884 885 885 885 886 886 886 886 886 886
809 811 810 811 813 812 814 816 816 817 817 817 821 822 818 816 819 821 812 807 808 809 812 812 814 816 815 816 817 818 819 820 822 824 826 828 829 830 831 833 834 834 836 838 839 841 842 844 845 847 849 850 851 853 855 856 857 858 859 860 861 862 863 864 866 867 868 869 870 871 872 873 874 875 875 876 877 877 878 879 879 880 881 881 882 882 883 883 884 885 885 885 885 885 885 885 885
806 808 810 811 812 812 814 816 816 817 818 817 818 820 818 817 820 819 812 807 808 810 812 812 814 815 814 815 815 816 817 818 820 822 823 824 825 827 828 829 831 832 834 835 837 839 841 842 844 845 847 848 849 851 852 854 855 856 857 858 859 860 861 862 864 865 866 867 868 869 870 871 873 874 874 875 875 876 877 877 878 879 880 880 880 881 882 882 883 884 884 884 884 884 884 884 884
807 807 815 817 814 816 815 815 815 816 819 815 817 826 824 820 819 814 809 808 808 810 812 812 813 813 812 812 813 814 815 816 818 819 819 820 822 824 825 826 828 830 832 833 835 837 839 840 842 843 845 846 847 848 849 851 852 853 855 856 857 858 859 861 862 863 864 865 866 867 868 869 871 872 873 874 874 875 876 876 877 878 878 879 879 880 880 881 882 882 882 883 883 883 883 883 883
812 811 817 821 823 823 814 813 814 815 818 812 819 835 829 816 812 807 805 806 808 811 811 811 812 811 811 810 811 812 812 813 814 815 816 818 820 821 822 824 826 828 830 832 833 834 837 838 840 841 843 844 845 846 847 849 850 851 852 854 855 856 857 858 859 861 862 863 865 866 866 867 868 870 871 872 872 873 874 875 876 876 877 878 878 878 879 879 880 881 881 882 882 882 882 882 882
815 818 820 823 831 825 808 808 813 816 817 810 820 838 828 813 807 802 802 804 808 811 810 809 810 809 809 809 809 810 810 811 811 812 814 816 817 818 820 822 824 826 828 830 831 832 835 836 838 839 841 842 842 844 845 846 848 849 850 851 853 854 855 856 857 859 860 861 863 863 864 865 866 867 868 869 870 871 872 873 874 875 875 876 877 876 877 878 879 879 880 880 880 881 881 881 881
816 825 830 827 830 822 805 804 809 814 817 811 821 835 825 813 806 800 800 803 806 809 808 807 807 807 808 807 807 808 808 808 809 811 812 814 815 816 818 820 821 824 826 827 829 831 832 834 835 837 838 839 840 842 843 845 846 847 848 849 850 851 852 854 855 857 858 859 860 861 862 863 864 865 866 867 868 869 870 871 872 873 874 875 875 875 876 876 877 878 878 879 879 879 880 880 880
820 824 831 827 828 825 812 806 803 807 815 814 820 828 821 811 805 801 801 802 805 807 807 805 804 804 804 806 806 807 807 807 808 809 810 811 812 813 815 817 819 821 823 825 827 828 830 831 833 835 836 837 839 840 842 843 844 846 846 847 848 849 850 851 853 854 855 856 857 858 859 860 861 862 864 865 865 866 868 869 870 871 872 873 873 874 874 875 876 876 877 877 878 878 878 878 879
826 823 825 821 820 823 820 813 804 803 813 817 818 820 815 808 803 802 801 802 804 806 806 803 802 801 801 803 804 805 805 805 805 805 807 808 809 812 813 815 817 818 820 822 824 826 827 829 830 832 834 835 837 839 841 842 843 844 845 846 846 847 847 848 850 851 852 853 854 855 856 857 859 860 861 862 863 865 866 867 868 869 870 871 871 872 873 874 874 875 876 876 876 876 877 877 877
825 823 824 821 815 816 819 816 807 803 811 815 819 820 814 808 804 803 801 801 803 804 803 802 800 799 799 800 801 802 802 802 801 802 803 806 807 809 811 812 815 816 818 820 822 824 826 827 828 829 831 833 835 837 839 840 841 842 843 844 845 845 845 846 847 848 849 850 851 852 853 854 856 857 859 860 861 862 864 865 866 867 868 868 869 870 871 872 873 874 874 875 875 875 875 876 876
813 814 818 822 817 812 809 808 803 802 812 816 816 817 812 808 805 803 802 801 801 801 800 800 799 797 797 797 798 798 799 798 797 798 800 803 805 807 808 810 812 814 816 818 820 822 823 825 826 827 829 830 833 835 836 837 838 840 841 841 842 842 843 843 844 845 847 848 849 850 851 851 853 854 856 858 859 860 861 862 864 865 866 866 867 868 868 869 870 871 872 873 874 874 874 874 875
805 808 813 816 815 810 801 803 803 799 810 817 811 811 809 805 803 799 799 799 799 799 798 798 797 796 795 794 795 795 796 796 794 796 797 799 802 803 806 808 809 811 813 815 817 818 820 822 823 824 825 828 829 831 832 833 834 835 836 837 837 838 840 841 842 843 844 845 846 847 848 849 850 851 853 854 856 857 858 859 860 862 863 863 864 865 866 867 868 869 870 871 872 872 872 873 873
803 806 810 812 812 808 800 802 803 799 809 814 807 809 807 801 800 796 795 796 796 796 797 796 794 793 793 791 792 792 792 793 792 793 794 796 798 800 802 805 806 807 809 811 812 814 816 818 820 821 822 824 825 827 828 829 829 831 832 832 834 836 837 837 838 839 840 841 843 844 844 845 846 847 849 850 852 853 854 856 857 858 860 861 862 863 864 865 866 867 868 869 870 870 870 871 871
803 806 809 811 807 805 806 806 804 804 812 813 808 810 806 798 796 793 791 791 790 790 790 790 790 790 790 789 789 790 791 791 791 791 792 793 794 796 799 801 802 803 805 807 809 811 813 814 815 817 818 820 821 823 824 826 827 829 830 831 832 833 834 835 835 836 838 838 839 840 840 841 842 843 845 846 848 849 851 852 854 855 856 857 859 860 861 862 863 864 865 866 867 868 868 868 868
804 808 812 812 803 804 814 812 808 808 810 812 812 814 809 800 797 792 788 787 785 784 783 782 784 785 785 785 785 786 788 789 789 789 790 790 792 794 796 797 799 801 803 804 806 807 809 810 811 813 814 815 817 819 821 823 826 828 829 831 832 833 833 834 835 835 835 836 836 836 837 837 839 840 842 843 844 846 847 848 850 852 853 854 855 856 857 858 860 860 862 862 863 864 865 866 866
805 807 811 810 803 803 812 812 810 811 811 810 815 822 814 801 800 795 786 785 783 781 781 779 778 778 779 781 781 782 782 783 785 786 787 788 789 790 792 794 796 798 800 800 802 803 804 805 807 809 811 812 814 815 817 821 824 826 828 829 831 831 832 832 832 831 831 832 832 832 833 834 836 837 838 840 841 842 843 844 846 848 849 851 852 852 853 855 856 857 858 859 860 860 861 863 863
808 806 805 804 801 803 810 812 813 820 822 813 815 829 818 794 794 793 783 784 782 779 779 777 775 776 778 779 779 779 779 778 779 780 782 783 785 787 788 790 792 794 795 796 798 799 800 802 804 806 808 810 811 813 815 817 819 821 823 824 825 825 826 825 824 824 825 826 826 828 830 831 833 834 835 837 838 839 840 841 842 844 846 847 848 848 849 850 852 853 854 855 856 857 858 860 860
813 804 799 799 799 803 810 813 817 825 825 815 812 827 825 802 793 789 783 783 780 776 776 773 773 774 775 776 776 776 776 776 775 775 777 778 780 783 784 785 787 788 789 791 794 796 797 799 801 802 804 806 808 810 812 814 815 817 818 818 818 819 818 817 817 820 821 822 824 825 827 828 830 831 832 834 835 836 837 838 839 840 842 843 844 844 845 846 847 849 850 851 852 854 855 856 856
813 800 795 800 801 806 810 813 819 819 818 819 814 820 831 822 801 787 785 785 780 775 772 769 770 770 771 771 771 771 772 772 773 773 773 774 775 777 779 780 781 782 784 787 789 791 793 795 797 798 800 801 803 806 807 809 810 812 813 814 815 815 814 814 816 819 820 821 822 823 824 825 826 828 829 830 832 833 834 835 836 837 838 839 840 841 841 842 844 845 847 848 849 850 851 852 853
808 798 796 799 801 806 808 813 820 816 820 829 821 819 832 826 800 785 786 788 782 773 768 767 766 766 767 767 766 766 767 768 770 771 771 771 772 772 773 775 776 778 781 783 784 786 789 791 793 795 796 797 799 801 803 804 805 807 809 811 811 811 811 813 816 817 818 819 819 820 821 822 823 824 826 827 828 830 831 832 834 834 835 836 837 838 839 840 841 842 843 844 845 846 847 849 850
802 798 797 800 803 806 810 817 820 820 829 834 824 820 830 822 798 787 789 787 780 771 765 762 760 761 762 761 761 762 764 766 766 768 768 768 769 770 771 772 774 776 778 780 781 784 787 788 790 791 792 793 795 797 799 800 801 803 805 805 806 807 809 811 813 814 815 816 816 816 817 818 819 820 821 823 825 826 828 829 830 831 831 832 834 835 836 837 837 838 840 841 842 843 844 846 847
798 800 803 809 811 811 816 818 820 830 835 827 818 815 824 824 800 784 783 776 768 765 763 760 756 756 757 756 758 759 760 762 763 764 765 766 767 768 770 771 772 775 776 778 780 781 784 785 787 788 788 790 792 793 795 796 797 798 799 800 801 803 806 808 810 811 812 813 813 814 815 816 816 817 818 819 821 822 824 825 826 827 828 829 830 831 832 833 834 835 837 838 839 840 841 842 844
796 803 808 818 823 823 827 827 830 841 835 818 811 809 819 825 799 775 768 760 757 760 760 758 755 753 753 754 756 756 757 758 759 761 762 764 766 766 768 769 770 773 774 776 778 779 781 783 785 786 787 788 788 790 792 793 794 795 795 796 798 800 803 805 806 807 808 809 810 812 813 814 814 814 815 815 816 818 820 821 822 823 824 824 825 826 828 829 831 833 834 835 836 837 838 839 840
799 803 810 824 834 838 841 840 839 840 829 815 810 810 815 810 787 770 764 756 755 756 754 754 753 751 752 753 754 755 755 756 757 760 761 763 765 765 766 767 769 770 771 773 775 776 778 779 781 783 783 784 786 788 790 791 792 793 794 795 796 798 800 801 801 802 804 805 806 807 808 809 810 811 811 811 812 814 815 816 817 818 819 820 821 823 824 826 828 829 830 831 832 833 834 835 836
800 802 809 821 833 843 846 841 837 832 823 815 811 812 813 798 778 768 760 752 751 751 750 751 751 751 752 752 753 754 755 756 757 758 760 762 763 764 765 766 767 768 769 771 772 774 775 776 778 780 780 782 784 786 788 789 790 791 793 794 795 796 797 797 797 798 799 800 801 802 803 804 805 805 806 807 809 811 812 812 813 814 815 817 818 819 821 822 823 825 826 827 828 829 831 831 833
797 794 800 810 815 824 831 828 827 826 824 822 816 812 805 790 773 760 752 748 747 749 748 748 749 749 750 752 753 755 755 756 757 757 759 760 760 761 762 764 765 766 767 769 770 771 772 773 775 777 778 780 782 783 785 786 787 789 791 792 792 793 794 794 795 795 796 796 797 798 799 799 800 801 802 803 805 807 807 808 810 811 812 813 815 816 817 818 820 821 822 823 824 826 827 828 829
799 790 797 806 799 800 813 816 813 815 822 825 818 806 789 774 762 752 751 750 746 748 748 747 749 749 750 753 753 755 755 755 756 756 757 757 758 759 760 762 763 764 765 766 767 768 769 770 772 774 775 777 779 781 782 783 784 786 787 788 789 790 792 792 793 793 794 795 795 796 796 796 797 797 798 799 801 802 803 805 806 807 809 810 811 812 813 815 816 818 819 820 821 822 823 824 826
796 795 799 796 787 790 807 817 812 812 818 813 806 800 783 772 762 749 749 751 747 748 748 747 748 749 751 752 752 754 754 754 754 753 754 755 756 757 758 759 761 762 763 764 765 767 768 769 771 773 774 776 777 778 780 781 783 784 785 786 788 789 790 790 791 792 792 793 794 794 794 794 794 795 796 796 797 798 800 801 802 804 806 807 808 809 811 812 813 814 815 817 818 819 820 821 823
790 797 792 786 790 795 803 813 815 816 818 804 795 794 785 779 769 748 745 751 749 747 747 747 748 748 749 750 750 751 751 752 752 751 752 754 754 755 756 757 759 760 761 763 764 766 767 769 770 771 773 774 775 776 778 779 781 782 783 784 786 786 787 788 789 789 790 791 791 792 792 792 792 793 794 795 795 795 796 798 799 801 802 804 806 806 808 809 810 811 812 813 814 815 816 818 820
782 786 781 784 800 806 804 809 810 813 815 801 788 788 782 776 766 749 747 751 748 745 745 746 746 746 746 747 747 748 748 750 750 750 751 752 752 753 754 756 758 759 760 761 763 764 765 767 768 769 771 772 773 774 775 777 778 779 781 782 783 784 785 785 786 787 788 788 788 789 790 790 790 791 792 793 793 793 794 795 796 798 799 801 803 804 805 806 807 808 809 810 811 812 813 815 817
781 781 779 781 789 796 797 798 796 801 806 799 789 786 776 762 752 745 745 745 743 743 742 742 742 742 742 743 744 745 745 747 748 748 750 750 751 752 753 755 756 757 759 760 761 763 764 765 766 768 770 770 772 773 774 775 776 777 779 779 780 781 781 782 783 784 784 784 785 786 787 787 788 789 789 790 791 791 792 792 793 795 796 797 799 801 802 803 804 805 806 808 809 810 811 812 814
782 783 783 784 785 788 790 789 786 791 798 796 792 786 766 745 737 736 736 736 737 737 737 738 738 737 738 739 740 742 743 744 745 746 747 749 750 751 752 754 755 756 758 759 761 762 763 764 765 766 768 769 770 771 772 773 774 775 776 776 777 778 778 779 780 781 781 781 782 783 784 785 786 787 788 789 790 791 791 792 792 792 793 794 796 797 799 800 801 802 803 805 806 807 809 809 811
775 778 779 782 786 789 795 796 787 784 789 786 786 783 760 734 727 728 728 729 731 732 733 734 734 735 737 737 738 740 742 743 744 744 746 747 749 750 752 753 754 756 757 758 760 761 761 762 763 765 766 767 768 769 770 771 772 773 774 774 775 776 777 778 778 779 780 780 781 782 783 784 784 786 787 789 790 791 793 793 792 792 792 792 793 794 795 796 797 798 799 801 802 803 805 807 809